Location: Dal�� Lhota
(48.7500°N, 14.0167°E)
Time: 00:33:09
(UTC+00:00)

Vanguard 3 - Pass Details

Date: 08 August 2021
Orbit: 510 x 3260 km, 33.3° (Epoch: 16 September)

Event Time Altitude Azimuth Distance (km) Brightness Sun altitude
Rises 22:38:34 0° 269° (W) 6,947 12.0 -25.0°
Reaches altitude 10° 22:51:12 10° 236° (SW) 6,196 11.3 -25.3°
Maximum altitude 22:52:59 10° 230° (SW) 6,174 11.3 -25.3°
Drops below altitude 10° 22:54:46 10° 225° (SW) 6,175 11.2 -25.3°
Enters shadow 22:56:24 10° 220° (SW) 6,196 11.2 -25.3°
Sets 23:07:21 0° 190° (S) 6,783 - -25.4°
